Location: Arthurs Seat
(13.1500°N, 59.6000°W)
Time: 00:24:31
(UTC+00:00)

SJ 16-02 - Pass Details

Date: 25 August 2019
Orbit: 605 x 618 km, 75.0° (Epoch: 18 September)

Event Time Altitude Azimuth Distance (km) Brightness Sun altitude
Rises 23:19:48 0° 181° (S) 2,854 4.6 -16.4°
Reaches altitude 10° 23:22:05 10° 175° (S) 1,953 3.7 -17.0°
Maximum altitude 23:26:17 48° 101° (E) 794 1.4 -18.0°
Drops below altitude 10° 23:30:30 10° 26° (NNE) 1,962 3.8 -18.9°
Sets 23:32:48 0° 21° (NNE) 2,868 4.7 -19.5°
